Broughton Island Airport, Northwest Territories

1:45 AM ADT on August 30, 2016 (GMT -0300)
Qikiqtarjuaq

Weather History for CYVM - March, 2014

Change the Weather History Date:

Sunday, March 23, 2014

  Actual Average Record
Temperature  
Mean Temperature -26 °F -  
Max Temperature -16 °F -2 °F 7 °F (2016)
Min Temperature -36 °F -14 °F -34 °F (2014)
Degree Days  
Heating Degree Days 91    
Moisture  
Dew Point -31 °F    
Average Humidity 69    
Maximum Humidity 76    
Minimum Humidity 50    
Precipitation  
Precipitation 0.00 in - - ()
Sea Level Pressure  
Sea Level Pressure 29.72 in    
Wind  
Wind Speed 4 mph ()    
Max Wind Speed 13 mph    
Max Gust Speed -    
Visibility 10.9 miles    
Events      
Averages and records for this station are not official NWS values.
T = Trace of Precipitation, MM = Missing Value Source: Averaged Metar Reports

Daily Weather History Graph

Daily Weather History Graph

Search for Another Location

Airport or City:

Trip Planner

Search our weather history database for the weather conditions in past years. The results will help you decide how hot, cold, wet, or windy it might be!

Date:

Astronomy

Mar. 23, 2014 Rise Set
Actual Time 7:03 AM ADT 7:43 PM ADT
Civil Twilight 6:08 AM ADT 8:39 PM ADT
Nautical Twilight 4:58 AM ADT 9:50 PM ADT
Astronomical Twilight 3:29 AM ADT 11:22 PM ADT
Moon 4:30 AM ADT (3/23) 9:05 AM ADT (3/23)
Length of Visible Light 14h 30m
Length of Day
12h 40m
Waning Gibbous, 55% of the Moon is Illuminated
Mar 23
Waning Gibbous
Mar 23
Last Quarter
Mar 30
New
Apr 7
First Quarter
Apr 15
Full

Hourly Weather History & Observations

Time (ADT) Temp. Windchill Dew Point Humidity Pressure Visibility Wind Dir Wind Speed Gust Speed Precip Events Conditions
12:00 AM -25.6 °F - -32.8 °F 69% 29.85 in 9.0 mi South 2.3 mph - N/A   Clear
1:00 AM -29.2 °F - -36.4 °F 68% 29.83 in 9.0 mi Calm Calm - N/A   Clear
2:00 AM -29.2 °F - -34.6 °F 75% 29.81 in 9.0 mi Calm Calm - N/A   Clear
3:00 AM -35 °F - -42 °F 50% 29.80 in 10 mi SSW 4.6 mph - -  
3:00 AM -34.6 °F -50.3 °F -41.8 °F 68% 29.80 in 9.0 mi SSW 4.6 mph - N/A   Clear
4:00 AM -32.8 °F - -40.0 °F 68% 29.78 in 9.0 mi Variable 2.3 mph - N/A   Clear
5:00 AM -27.4 °F - -32.8 °F 75% 29.78 in 9.0 mi Calm Calm - N/A   Clear
6:00 AM -29.2 °F - -36.4 °F 68% 29.77 in 9.0 mi Calm Calm - N/A   Clear
7:00 AM -31.0 °F - -38.2 °F 68% 29.76 in 15.0 mi SSW 2.3 mph - N/A   Partly Cloudy
8:00 AM -27.4 °F -44.1 °F -36.4 °F 62% 29.75 in 15.0 mi SSW 5.8 mph - N/A   Partly Cloudy
9:00 AM -28 °F - -36 °F 50% 29.75 in 10 mi SSW 4.6 mph - -  
9:00 AM -29.2 °F -48.1 °F -34.6 °F 75% 29.75 in 15.0 mi SSW 6.9 mph - N/A   Partly Cloudy
10:00 AM -23.8 °F - -31.0 °F 69% 29.73 in 15.0 mi SSW 2.3 mph - N/A   Partly Cloudy
11:00 AM -23.8 °F -41.6 °F -31.0 °F 69% 29.73 in 15.0 mi SSW 6.9 mph - N/A   Partly Cloudy
12:00 PM -20.2 °F -30.9 °F -27.4 °F 69% 29.71 in 15.0 mi ENE 3.5 mph - N/A   Partly Cloudy
1:00 PM -20.2 °F - -25.6 °F 76% 29.70 in 15.0 mi Variable 2.3 mph - N/A   Partly Cloudy
2:00 PM -16.6 °F -31.3 °F -23.8 °F 70% 29.69 in 15.0 mi SSE 5.8 mph - N/A   Clear
3:00 PM -16 °F - -22 °F 61% 29.69 in 10 mi South 2.3 mph - -  
3:00 PM -16.6 °F - -22.0 °F 76% 29.68 in 9.0 mi Variable 2.3 mph - N/A   Clear
4:00 PM -18.4 °F -35.1 °F -23.8 °F 76% 29.68 in 9.0 mi SSW 6.9 mph - N/A   Clear
5:00 PM -16.6 °F - -22.0 °F 76% 29.68 in 9.0 mi South 2.3 mph - N/A   Clear
6:00 PM -20.2 °F -38.8 °F -25.6 °F 76% 29.67 in 9.0 mi SSW 8.1 mph - N/A   Clear
7:00 PM -22.0 °F -44.7 °F -29.2 °F 69% 29.66 in 9.0 mi SSW 11.5 mph - N/A   Clear
8:00 PM -23.8 °F -48.0 °F -29.2 °F 76% 29.65 in 9.0 mi SSW 12.7 mph - N/A   Clear
9:00 PM -22 °F - -29 °F 54% 29.64 in 10 mi South 11.5 mph - -  
9:00 PM -22.0 °F -43.6 °F -29.2 °F 69% 29.64 in 9.0 mi South 10.4 mph - N/A   Clear
10:00 PM -20.2 °F -43.4 °F -27.4 °F 69% 29.63 in 9.0 mi SSW 12.7 mph - N/A   Clear
11:00 PM -18.4 °F -40.2 °F -25.6 °F 70% 29.62 in 9.0 mi South 11.5 mph - N/A   Clear